Location: Aytr�
(46.1357°N, 1.1145°W)
Time: 18:28:41
(UTC+00:00)

OBJECT-B - Pass Details

Date: 03 March 2021
Orbit: 414 x 427 km, 97.0° (Epoch: 11 April)

Event Time Altitude Azimuth Distance (km) Brightness Sun altitude
Exits shadow 19:38:15 32° 25° (NNE) 754 1.8 -18.8°
Drops below altitude 10° 19:40:19 10° 0° (N) 1,514 3.7 -19.2°
Sets 19:42:22 0° 354° (N) 2,381 4.8 -19.5°
